EW2887 Weather Reports


Display with metric or nautical units.
time (UTC)temp
F
wind
direction
speed
MPH
gust
MPH
rain 1hr
in
rain 24hr
in
rain mn
in
humidity
%
barometer
mb
20260509124536 56 186 0.0 3.0 0.00 0.00 0.00 60 1008.5
20260509123035 55 186 3.0 7.0 0.00 0.00 0.00 60 1008.4
20260509121536 54 188 4.0 7.0 0.00 0.00 0.00 59 1008.3
20260509120036 53 205 6.0 10.0 0.00 0.00 0.00 57 1008.3
20260509114538 53 207 7.0 9.0 0.00 0.00 0.00 56 1008.2
20260509113031 54 195 7.0 9.0 0.00 0.00 0.00 55 1008.3
20260509111528 55 201 6.0 11.0 0.00 0.00 0.00 54 1008.3
20260509110025 55 168 7.0 10.0 0.00 0.00 0.00 55 1008.3
20260509104523 55 176 7.0 10.0 0.00 0.00 0.00 55 1008.4
20260509103019 56 166 5.0 10.0 0.00 0.00 0.00 53 1008.4
20260509101528 58 138 3.0 9.0 0.00 0.00 0.00 52 1008.5
20260509100021 58 132 5.0 12.0 0.00 0.00 0.00 51 1008.6
20260509094515 58 125 5.0 10.0 0.00 0.00 0.00 49 1008.8
20260509093010 59 135 7.0 14.0 0.00 0.00 0.00 49 1008.7
20260509091508 59 360 9.0 13.0 0.00 0.00 0.00 47 1008.4
20260509090006 59 115 8.0 15.0 0.00 0.00 0.00 46 1008.3
20260509084508 60 129 10.0 18.0 0.00 0.00 0.00 46 1008.4
20260509083001 59 360 9.0 13.0 0.00 0.00 0.00 46 1008.4
20260509081559 59 360 6.0 13.0 0.00 0.00 0.00 46 1008.3
20260509080056 60 360 10.0 16.0 0.00 0.00 0.00 44 1008.4
20260509074602 62 360 10.0 19.0 0.00 0.00 0.00 42 1008.5
20260509073048 63 77 7.0 16.0 0.00 0.00 0.00 40 1008.4
20260509071547 63 90 8.0 15.0 0.00 0.00 0.00 41 1008.4
20260509070045 62 81 7.0 11.0 0.00 0.00 0.00 41 1008.4
20260509064557 62 80 8.0 11.0 0.00 0.00 0.00 42 1008.2
20260509063044 62 79 4.0 8.0 0.00 0.00 0.00 41 1008.3
20260509061542 63 83 5.0 8.0 0.00 0.00 0.00 40 1008.3
20260509060037 64 84 6.0 8.0 0.00 0.00 0.00 39 1008.4
20260509054535 64 100 1.0 5.0 0.00 0.00 0.00 39 1008.5
20260509053029 65 101 3.0 7.0 0.00 0.00 0.00 38 1008.5
20260509051534 65 98 5.0 8.0 0.00 0.00 0.00 37 1008.4
20260509050025 66 114 6.0 11.0 0.00 0.00 0.00 37 1008.5
20260509044523 66 109 5.0 10.0 0.00 0.00 0.00 36 1008.5
20260509043024 66 89 5.0 9.0 0.00 0.00 0.00 35 1008.4
20260509041523 66 105 3.0 5.0 0.00 0.00 0.00 35 1008.5
20260509040022 67 106 3.0 7.0 0.00 0.00 0.00 34 1008.4
20260509034538 68 107 3.0 8.0 0.00 0.00 0.00 33 1008.2
20260509033023 69 96 6.0 8.0 0.00 0.00 0.00 32 1008.1
20260509031523 69 96 5.0 7.0 0.00 0.00 0.00 32 1008.0
20260509030023 69 92 3.0 5.0 0.00 0.00 0.00 31 1007.7
20260509024521 70 92 5.0 7.0 0.00 0.00 0.00 31 1007.6
20260509023021 70 92 2.0 5.0 0.00 0.00 0.00 31 1007.3
20260509021522 71 92 3.0 6.0 0.00 0.00 0.00 30 1006.9
20260509020019 72 92 6.0 9.0 0.00 0.00 0.00 29 1006.8
20260509014519 74 90 6.0 11.0 0.00 0.00 0.00 28 1006.7
20260509013018 74 69 8.0 12.0 0.00 0.00 0.00 27 1006.5
20260509011519 76 47 7.0 11.0 0.00 0.00 0.00 26 1006.5
20260509010020 77 30 10.0 15.0 0.00 0.00 0.00 25 1006.3
20260509004524 77 50 7.0 12.0 0.00 0.00 0.00 25 1006.2
20260509003017 78 40 7.0 12.0 0.00 0.00 0.00 24 1006.3
20260509001515 78 341 12.0 18.0 0.00 0.00 0.00 24 1006.2
20260509000015 78 22 10.0 19.0 0.00 0.00 0.00 23 1006.1
20260508234513 79 9 8.0 19.0 0.00 0.00 0.00 24 1006.1
20260508233014 79 13 10.0 21.0 0.00 0.00 0.00 24 1006.0
20260508231513 79 57 5.0 20.0 0.00 0.00 0.00 23 1006.2
20260508230012 80 360 12.0 21.0 0.00 0.00 0.00 23 1006.1
20260508224512 79 318 14.0 27.0 0.00 0.00 0.00 23 1006.1
20260508223011 80 360 12.0 20.0 0.00 0.00 0.00 23 1006.1
20260508221512 79 49 14.0 18.0 0.00 0.00 0.00 23 1006.1
20260508220009 79 22 12.0 25.0 0.00 0.00 0.00 23 1006.1
20260508214509 79 5 7.0 18.0 0.00 0.00 0.00 23 1006.3
20260508213014 79 48 11.0 26.0 0.00 0.00 0.00 22 1006.4
20260508211505 79 355 10.0 22.0 0.00 0.00 0.00 23 1006.4
20260508210005 79 11 14.0 29.0 0.00 0.00 0.00 23 1006.4
20260508204501 79 30 13.0 26.0 0.00 0.00 0.00 22 1006.6
20260508203108 79 10 15.0 27.0 0.00 0.00 0.00 22 1006.6
20260508201558 79 5 13.0 29.0 0.00 0.00 0.00 22 1006.6
20260508200057 80 360 12.0 23.0 0.00 0.00 0.00 22 1006.7
20260508194556 80 19 11.0 18.0 0.00 0.00 0.00 22 1006.7
20260508193107 79 5 13.0 25.0 0.00 0.00 0.00 22 1006.9
20260508191557 79 360 12.0 20.0 0.00 0.00 0.00 23 1007.0
20260508190105 79 30 12.0 18.0 0.00 0.00 0.00 23 1007.0
20260508184550 79 355 11.0 15.0 0.00 0.00 0.00 25 1007.1
20260508183106 77 355 11.0 19.0 0.00 0.00 0.00 28 1007.3
20260508181548 77 340 12.0 20.0 0.00 0.00 0.00 27 1007.6
20260508180057 78 328 8.0 20.0 0.00 0.00 0.00 28 1007.7
20260508174600 77 336 8.0 15.0 0.00 0.00 0.00 28 1007.8
20260508173042 76 20 4.0 18.0 0.00 0.00 0.00 28 1008.0
20260508171541 78 345 9.0 12.0 0.00 0.00 0.00 25 1008.1
20260508170043 80 300 3.0 8.0 0.00 0.00 0.00 26 1008.2
20260508164545 76 319 3.0 13.0 0.00 0.00 0.00 30 1008.5
20260508163036 75 303 8.0 14.0 0.00 0.00 0.00 32 1008.6
20260508161532 75 319 2.0 9.0 0.00 0.00 0.00 30 1008.5
20260508160034 77 263 4.0 10.0 0.00 0.00 0.00 29 1008.7
20260508154526 74 286 4.0 13.0 0.00 0.00 0.00 33 1008.8
20260508153030 72 267 8.0 13.0 0.00 0.00 0.00 35 1009.0
20260508151520 69 300 10.0 16.0 0.00 0.00 0.00 42 1009.0
20260508150015 67 275 10.0 18.0 0.00 0.00 0.00 47 1009.2
20260508144514 65 242 16.0 22.0 0.00 0.00 0.00 52 1009.1
20260508143009 63 267 14.0 20.0 0.00 0.00 0.00 56 1009.2
20260508141505 62 235 12.0 20.0 0.00 0.00 0.00 61 1009.4
20260508140100 61 241 15.0 23.0 0.00 0.00 0.00 62 1009.4
20260508134556 59 360 12.0 19.0 0.00 0.00 0.00 65 1009.4
20260508133054 57 238 13.0 17.0 0.00 0.00 0.00 66 1009.7
20260508131606 56 234 16.0 22.0 0.00 0.00 0.00 67 1009.6
20260508130054 55 210 19.0 25.0 0.00 0.00 0.00 69 1009.3